www.pogodaiklimat.ru

Погода и климат >> Архив погоды >> Колумбия >> Monteria


ПОГОДА в Monteria

  • Прогноз погоды в Monteria
  • Монитор погоды в Monteria
  • Климат города

АРХИВ ПОГОДЫ в Monteria

Время (UTC), дата Ветер
(напр.,м/с)
 
Видим.   Явления Облачность Т
(С)
Тd
(С)
f
(%)
Тe
(С)
Тes
(С)
Комфортность P
(гПа)
Po
(гПа)
Тmin
(С)
Tmax
(С)
R
(мм)
R24
(мм)
S
(см)
15 11.08 штиль 0 16 км мгла 3/3 450 м
[Sc diur, vesp]
+31.0 +26.5 77 +47 +63 опасность
перегрева
1011.5 1010.1
18 11.08 штиль 0 16 км мгла 5/5 540 м
[Sc diur, vesp]
+34.4 +25.4 60 +49 +63 опасность
перегрева
1009.5 1008.1
21 11.08 штиль 0 16 км мгла 4/4 500 м
[Sc diur, vesp]
+33.0 +25.3 64 +47 +52 опасность
перегрева
1007.1 1005.7
03 12.08 штиль 0 15 км мгла 1/1 600 м
[Sc diur, vesp As trans]
+26.6 +25.8 95 +39 +39 очень
душно
1011.0 1009.6
12 12.08 штиль 0 6000 м мгла 10/9 480 м
[Sc diur, vesp As trans]
+24.6 +24.3 98 +34 +34 очень
душно
1010.4 1009.0 +24.0 0.4
15 12.08 штиль 0 15 км мгла 9/6 500 м
[Sc diur, vesp As trans]
+30.6 +24.7 71 +43 +48 опасность
перегрева
1011.4 1010.0
18 12.08 штиль 0 16 км мгла 8/6 660 м
[Sc diur, vesp Cs]
+34.4 +26.0 62 +50 +60 опасность
перегрева
1009.8 1008.4
21 12.08 штиль 0 16 км мгла 1/1 600 м
[Sc diur, vesp Ci fib]
+35.2 +24.5 54 +48 +55 опасность
перегрева
1007.1 1005.7
00 13.08 С 3 16 км мгла 9/1 500 м
[Cb calv As trans]
+28.8 +26.1 85 +43 +43 опасность
перегрева
1008.4 1007.0 +36.2
12 13.08 штиль 0 7000 м мгла 3/3 450 м
[Sc diur, vesp As trans]
+25.8 +25.0 95 +37 +38 очень
душно
1010.0 1008.6 +24.2
15 13.08 штиль 0 15 км мгла 5/5 500 м
[Sc diur, vesp As trans]
+31.6 +25.7 71 +47 +58 опасность
перегрева
1009.8 1008.4
18 13.08 штиль 0 16 км мгла 8/8 660 м
[Sc diur, vesp]
+34.0 +25.5 61 +48 +54 опасность
перегрева
1008.8 1007.4
21 13.08 СЗ 4 16 км мгла 9/1 540 м
[Sc diur, vesp As trans]
+29.4 +23.7 71 +40 +42 очень
душно
1007.1 1005.7
00 14.08 З 3 16 км мгла 10/8 500 м
[Frnb As op]
+28.2 +26.1 88 +42 +42 опасность
перегрева
1008.4 1007.0 +35.4
03 14.08 штиль 0 12 км мгла 5/1 600 м
[Sc diur, vesp As trans]
+27.0 +25.9 94 +40 +40 очень
душно
1010.1 1008.7
12 14.08 Ю 3 9000 м слабая морось 10/3 300 м
[Frnb As op]
+24.0 +23.5 97 +32 +33 очень
душно
1011.8 1010.4 +22.8 12
15 14.08 ЮЗ 3 16 км мгла 10/6 400 м
[Frnb As op]
+26.2 +24.6 91 +37 +38 очень
душно
1012.5 1011.1
18 14.08 штиль 0 16 км мгла 10/8 540 м
[Sc diur, vesp As trans]
+29.2 +25.2 79 +42 +45 опасность
перегрева
1010.6 1009.2 1
21 14.08 штиль 0 16 км мгла 6/4 500 м
[Sc diur, vesp As trans]
+29.6 +25.1 77 +43 +47 опасность
перегрева
1008.8 1007.4
12 15.08 штиль 0 15 км мгла {морось} 10/4 450 м
[Sc diur, vesp As trans]
+23.4 +22.8 96 +33 +33 очень
душно
1012.2 1010.8 +22.8 1
15 15.08 штиль 0 15 км мгла 10/3 450 м
[Sc diur, vesp As trans]
+26.0 +24.9 94 +37 +43 очень
душно
1013.8 1012.4
21 15.08 штиль 0 16 км мгла 8/1 500 м
[Sc diur, vesp Ac trans]
+29.8 +23.2 68 +40 +44 очень
душно
1009.1 1007.7
00 16.08 штиль 0 16 км мгла 8/1 450 м
[Sc diur, vesp Ac As]
+28.4 +24.1 78 +40 +40 очень
душно
1010.1 1008.7 +30.4
03 16.08 штиль 0 16 км мгла 1/1 600 м
[Sc diur, vesp]
+25.4 +23.5 89 +34 +34 очень
душно
1012.2 1010.8
15 16.08 штиль 0 16 км мгла 8/8 500 м
[Sc diur, vesp]
+29.0 +25.3 80 +42 +47 опасность
перегрева
1013.2 1011.8
18 16.08 СВ 2 16 км мгла 5/5 600 м
[Sc diur, vesp]
+33.6 +24.8 60 +47 +57 опасность
перегрева
1011.2 1009.8
21 16.08 штиль 0 16 км мгла 4/4 600 м
[Sc diur, vesp]
+33.8 +25.0 60 +47 +52 опасность
перегрева
1009.3 1007.9
00 17.08 С 3 15 км мгла 3/3 600 м
[Sc diur, vesp]
+28.2 +25.3 84 +41 +41 опасность
перегрева
1010.8 1009.4 +34.4
03 17.08 штиль 0 15 км мгла 1/1 540 м
[Sc diur, vesp]
+26.4 +24.8 91 +38 +38 очень
душно
1012.4 1011.0
12 17.08 штиль 0 15 км мгла 3/3 540 м
[Sc diur, vesp]
+26.0 +25.2 95 +37 +39 очень
душно
1012.7 1011.3 +24.8
15 17.08 штиль 0 15 км мгла 5/5 540 м
[Sc diur, vesp]
+31.4 +25.8 72 +46 +57 опасность
перегрева
1012.8 1011.4
18 17.08 штиль 0 16 км мгла 5/5 600 м
[Sc diur, vesp]
+34.2 +24.3 56 +46 +60 опасность
перегрева
1010.5 1009.1
21 17.08 штиль 0 16 км мгла 3/3 600 м
[Sc diur, vesp As trans]
+34.0 +25.2 60 +48 +54 опасность
перегрева
1008.8 1007.4
00 18.08 С 3 16 км мгла 4/1 600 м
[Sc diur, vesp As trans]
+28.8 +25.9 84 +43 +43 опасность
перегрева
1010.1 1008.7 +35.2
03 18.08 штиль 0 12 км мгла 3/3 600 м
[Sc diur, vesp]
+27.0 +25.9 94 +40 +40 очень
душно
1012.8 1011.4

 

Местоположение метеостанции Monteria (Колумбия): широта 8.82 долгота -75.85 высота над уровнем моря 26 м.

В архиве по умолчанию представлена погода в Monteria за последнюю неделю. Архивные данные за месяц целиком и за предыдущие месяцы, начиная с января 2011 года, Вы можете получить, выбрав интересующий диапазон дат из раскрывающегося списка и нажав кнопку "Ввод!".


*Определитесь, кто Вы:
робот инопланетянин человек

Внимание! Время в таблицах - всемирное. Для получения местного времени необходимо прибавить поправку, которая в Monteria равна -5 ч.

Смотрите также архив погоды в соседних городах и на ближайших метеорологических станциях:

Погода в Apartado (Колумбия) (145 км)
Погода в Cartagena (Колумбия) (185 км)
Погода в Barranquilla (Колумбия) (257 км)
Погода в Medellin (Колумбия) (290 км)
Погода в Barrancabermeja (Колумбия) (302 км)
Погода в Rionegro (Колумбия) (303 км)
Погода в Santa Marta (Колумбия) (312 км)
Погода в Valledupar (Колумбия) (337 км)
Погода в Bucaramanga (Колумбия) (349 км)
Погода в Quibdo (Колумбия) (355 км)

Пояснения к столбцам:

Ветер - указаны скорость ветра в м/с - средняя за 10 мин, порывы в срок и между сроками (в фигурных скобках) и направление, откуда дует ветер: С - северный, СВ - северо-восточный, В - восточный, ЮВ - юго-восточный, Ю - южный, ЮЗ - юго-западный, З - западный, СЗ - северо-западный.
Видимость - горизонтальная дальность видимости в метрах или километрах. При видимости от 1 до 10 км при отсутствии осадков обычно наблюдается дымка, при ухудшении видимости до 1 км и менее - туман. В сухую погоду видимость может ухудшаться дымом, пылью или мглою.
Явления - указаны атмосферные явления, наблюдавшиеся в срок или в последний час перед сроком; фигурными скобками обозначены явления, наблюдавшиеся между сроками (за 1-3 часа до срока); квадратными скобками обозначены град или гололедные отложения с указанием их диаметра в мм.
Облачность - указаны через наклонную черту общая и нижняя облачность в баллах и высота нижней границы облаков в метрах; квадратными скобками обозначены формы облаков: Ci - перистые, Cs - перисто-слоистые, Cc - перисто-кучевые, Ac - высококучевые, As - высокослоистые, Sc - слоисто-кучевые, Ns - слоисто-дождевые, Cu - кучевые, Cb - кучево-дождевые. Подробнее классификацию облаков см. в Атласе облаков (PDF).
T - Температура воздуха - температура, измеренная на высоте 2 м над землей.
Td - Температура точки росы - температура, при понижении до которой содержащийся в воздухе водяной пар достигнет насыщения.
f - Относительная влажность воздуха - влажноcть воздуха, измеренная на высоте 2 м над землей.
Te - Эффективная температура - температура, которую ощущает одетый по сезону человек в тени. Характеристика душности погоды. При расчете учитывается влияние влажности воздуха и скорости ветра на теплоощущения человека.
Tes - Эффективная температура на солнце - температура, которую ощущает человек, с поправкой на солнечный нагрев. Характеристика знойности погоды. Зависит от высоты солнца над горизонтом, облачности и скорости ветра. Ночью, в пасмурную погоду, а также при ветре 12 м/с и более поправка равна нулю.
P - Атмосферное давление - приведенное к уровню моря атмосферное давление.
Po - Атмосферное давление - измеренное на уровне метеостанции атмосферное давление.
Tmin - Минимальная температура - минимум температуры воздуха на высоте 2 м над землей.
Tmax - Максимальная температура - максимум температуры воздуха на высоте 2 м над землей.
R - Количество осадков - Количество выпавших осадков за период времени, мм. При наведении курсора мыши на число - период времени, за который выпало указанное количество осадков.
R24 - Количество осадков - Количество выпавших осадков за 24 часа, мм.
S - Снежный покров - Высота снежного покрова, см. При наведении курсора мыши на число - состояние снежного покрова и степень покрытия местности в баллах.